Regional Weather Roundup
Issued by NWS

Home | Current Version | Previous Version | Graphics & Text | Print | Product List | Glossary On
Versions: 1 2 3 4 5 6 7 8 9 10 11 12 13 14 15 16 17 18 19 20 21 22 23 24 25 26 27 28 29 30 31 32 33 34 35 36 37 38 39 40 41 42 43 44 45 46 47 48 49 50
000
ASUS45 KTFX 160704
RWRMT
MONTANA HOURLY WEATHER ROUNDUP
NATIONAL WEATHER SERVICE GREAT FALLS MT
104 AM MDT TUE SEP 16 2014

NOTE: "FAIR" INDICATES FEW OR NO CLOUDS BELOW 12000 FEET WITH NO
SIGNIFICANT WEATHER AND/OR OBSTRUCTIONS TO VISIBILITY.

* THESE STATIONS ARE NOT UNDER NWS QUALITY CONTROL. THEY DO NOT
   REPORT WEATHER SUCH AS PRECIPITATION OR FOG.

MTZ001>007-043-160800-
WEST OF THE DIVIDE
CITY           SKY/WX    TMP DP  RH WIND       PRES   REMARKS
KALISPELL      CLEAR     45  37  74 NW5       30.01R
MISSOULA       PTCLDY    54  34  47 CALM      30.03S
BUTTE          MOCLDY    43  30  60 SE6       30.18R
MULLAN PASS    PTCLDY    63  25  24 S6        30.14S
* LINCOLN      N/A       40  28  62 W2         N/A
* LOOKOUT PASS N/A       55  30  39 S2         N/A
* POLSON       N/A       55  30  39 N/A        N/A
* RONAN APT    PTCLDY    46  36  68 N/A        N/A
* SEELEY LAKE  N/A       40  29  65 NE1        N/A
* THOMP F APT  PTCLDY    58  23  26 NE4        N/A
$$

MTZ008-052>055-160800-
SOUTHWEST MONTANA
CITY           SKY/WX    TMP DP  RH WIND       PRES   REMARKS
BOZEMAN        CLEAR     45  36  71 E6        30.12R
DILLON         CLEAR     54  27  35 S8        30.14R
W YELLOWSTONE  PTCLDY    34  27  76 CALM      30.26S
* THREE FORKS  CLEAR     46  -8  10 N/A        N/A
* BOULDER HILL N/A       53  28  38 S8         N/A
* MONIDA PASS  N/A       48  26  42 W4         N/A
* RAYNOLDS PAS N/A       48  33  56 S8         N/A
* WHITEHALL    N/A       49  32  52 SW1G8      N/A
* WISE RIVER   N/A       46  25  44 S2         N/A
$$

MTZ009>010-012-014-046-048-049-054-160800-
EAST SLOPES AND CENTRAL MONTANA
CITY           SKY/WX    TMP DP  RH WIND       PRES   REMARKS
CUT BANK       CLEAR     46  36  68 NW6       30.02F
GREAT FALLS    CLEAR     46  37  71 SW6       30.02S
HELENA         CLEAR     54  36  51 SW5       30.07R
MALMSTROM AFB  CLEAR     45  39  80 S5        30.03S
* CONRAD       CLEAR     39  37  93 N/A        N/A
* EAST GLACIER N/A       52  30  43 N6         N/A
* MONARCH      N/A       46  26  46 S1G6       N/A
* PENDROY      N/A       51  33  50 NE2        N/A
* ROGERS PASS  N/A       54  28  37 W1         N/A
* SAINT MARY   N/A       38  33  82 SE3        N/A
* SWEET GRASS  N/A       55  39  55 S11        N/A
$$

MTZ011-013-016-021-035-040-045-047-050-051-160800-
NORTH CENTRAL MONTANA
CITY           SKY/WX    TMP DP  RH WIND       PRES   REMARKS
HAVRE          CLEAR     48  45  89 CALM      29.99S
LEWISTOWN      CLEAR     46  37  71 SE7       30.06S
* CHESTER      N/A       44  38  80 N2         N/A
* DENTON       N/A       42  41  96 S5         N/A
* JUDITH GAP   N/A       46  41  83 S4         N/A
* LOMA         N/A       51  43  74 NE10       N/A
$$

MTZ017>020-022>027-061-062-160800-
NORTHEAST MONTANA
CITY           SKY/WX    TMP DP  RH WIND       PRES   REMARKS
GLASGOW        CLEAR     46  37  71 E10       30.03S
GLENDIVE       CLEAR     43  36  76 N7        30.06S
JORDAN         CLEAR     43  39  86 CALM      30.03S
SIDNEY         CLEAR     39  34  82 CALM      30.06S
WOLF POINT     CLEAR     39  34  82 N3        30.05S
* BEAVER HILL  N/A       50  38  64 E9         N/A
* CIRCLE       N/A       44  38  80 N/A        N/A
* LINDSAY DVD  N/A       48  34  59 E4         N/A
* NAVAJO       N/A       49  31  50 W9         N/A
* SACO         N/A       51  40  66 E4         N/A
$$

MTZ028>042-056>058-160800-
SOUTHCENTRAL AND SOUTHEAST MONTANA
CITY           SKY/WX    TMP DP  RH WIND       PRES   REMARKS
BAKER          CLEAR     45  43  93 E5        30.06F
BILLINGS       CLEAR     54  45  72 SW7       30.06S
LIVINGSTON     PTCLDY    46  36  68 SW3       30.11F
MILES CITY     CLEAR     48  39  71 N7        30.03S
* LAUREL APT   CLEAR     52  41  66 N/A        N/A
* ROUNDUP APT  CLEAR     50  43  77 N/A        N/A
* ALZADA       N/A       44  42  93 E4         N/A
* HYSHAM       N/A       58  35  42 N/A        N/A
* LAME DEER    N/A       57  40  53 S4         N/A
* REED POINT   N/A       44  43  96 W4         N/A
* ROSCOE HILL  N/A       60  23  24 S11        N/A
$$

REGIONAL REPORTS...DAKOTAS
CITY           SKY/WX    TMP DP  RH WIND       PRES   REMARKS
WILLISTON      CLEAR     39  34  82 N3        30.05S
DICKINSON      CLEAR     43  37  79 S10       30.05F
BEACH          N/A       39  39 100 SE5       30.07F WCI  35
CROSBY         CLEAR     45  37  74 S10       30.04S
TIOGA          CLEAR     36  32  85 CALM      30.09S
WATFORD CITY   CLEAR     36  32  85 CALM      30.04S
BISMARCK       CLEAR     45  37  74 E3        30.11S
GRAND FORKS    CLEAR     43  39  86 SW6       30.06S
FARGO          CLEAR     50  37  61 SW13      30.12S
BUFFALO SD     CLEAR     50  41  71 CALM      30.00F
RAPID CITY     CLEAR     48  43  83 SE6       30.07F
$$

REGIONAL REPORTS...WYOMING/IDAHO/WASHINGTON
CITY           SKY/WX    TMP DP  RH WIND       PRES   REMARKS
GILLETTE       CLEAR     52  45  77 VRB3      30.11S
SHERIDAN       CLEAR     46  41  83 CALM      30.09F
CODY           CLEAR     55  39  55 SW7       30.16S
YELLOWSTONE LA PTCLDY    36  28  73 CALM      30.36S
SALMON         CLEAR     48  34  59 S5        30.07S
MULLAN PASS    PTCLDY    63  25  24 S6        30.14S
SAND POINT     PTCLDY    43  41  93 CALM      29.96S
SPOKANE        MOCLDY    66  36  33 E8        29.92S

$$



USA.gov is the U.S. government's official web portal to all federal, state and local government web resources and services.